Spartanburg, SC

11:51 AM EST on February 13, 2016 (GMT -0500)
Spartanburg Downtown Memorial

Weather History for KSPA - September, 2013

Change the Weather History Date:

Saturday, September 7, 2013

  Actual Average (KGSP) Record (KGSP)
Temperature  
Mean Temperature 75 °F 75 °F  
Max Temperature 86 °F 85 °F 100 °F (1925)
Min Temperature 64 °F 65 °F 55 °F (1984)
Degree Days  
Heating Degree Days 0 0  
Month to date heating degree days 0  
Since 1 July heating degree days 0  
Cooling Degree Days 10 10  
Month to date cooling degree days 75  
Year to date cooling degree days 1510  
Growing Degree Days 25 (Base 50)    
Moisture  
Dew Point 65 °F    
Average Humidity 77    
Maximum Humidity 100    
Minimum Humidity 48    
Precipitation  
Precipitation 0.00 in 0.13 in 4.00 in (2004)
Month to date precipitation 0.87  
Year to date precipitation 33.38  
Snow  
Snow 0.00 in 0.00 in 0.00 in ()
Month to date snowfall 0.0  
Since 1 July snowfall 0.0  
Since 1 September snowfall 0.0  
Snow Depth -    
Sea Level Pressure  
Sea Level Pressure 30.09 in    
Wind  
Wind Speed 1 mph (WSW)    
Max Wind Speed 7 mph    
Max Gust Speed -    
Visibility 10 miles    
Events      
T = Trace of Precipitation, MM = Missing Value Source: NWS Daily Summary

Daily Weather History Graph

Daily Weather History Graph

Search for Another Location

Airport or City:

Trip Planner

Search our weather history database for the weather conditions in past years. The results will help you decide how hot, cold, wet, or windy it might be!

Date:

Astronomy

Sep. 07, 2013 Rise Set
Actual Time 7:05 AM EDT 7:45 PM EDT
Civil Twilight 6:39 AM EDT 8:11 PM EDT
Nautical Twilight 6:09 AM EDT 8:41 PM EDT
Astronomical Twilight 5:38 AM EDT 9:12 PM EDT
Moon 9:10 AM EDT (9/7) 8:51 PM EDT (9/7)
Length of Visible Light 13h 31m
Length of Day
12h 40m
Waxing Crescent, 5% of the Moon is Illuminated
Sep 7
Waxing Crescent
Sep 12
First Quarter
Sep 19
Full
Sep 26
Last Quarter
Oct 4
New

Hourly Weather History & Observations

Time (EDT) Temp. Heat Index Dew Point Humidity Pressure Visibility Wind Dir Wind Speed Gust Speed Precip Events Conditions
12:15 AM 68.0 °F - 64.4 °F 88% 30.13 in 10.0 mi Calm Calm - N/A   Clear
12:35 AM 68.0 °F - 64.4 °F 88% 30.12 in 10.0 mi Calm Calm - N/A   Clear
12:55 AM 68.0 °F - 64.4 °F 88% 30.12 in 10.0 mi Calm Calm - N/A   Clear
1:15 AM 66.2 °F - 64.4 °F 94% 30.13 in 10.0 mi Calm Calm - N/A   Clear
1:35 AM 66.2 °F - 64.4 °F 94% 30.13 in 10.0 mi Calm Calm - N/A   Clear
1:55 AM 66.2 °F - 64.4 °F 94% 30.13 in 10.0 mi Calm Calm - N/A   Clear
2:15 AM 68.0 °F - 64.4 °F 88% 30.12 in 10.0 mi Calm Calm - N/A   Clear
2:35 AM 68.0 °F - 64.4 °F 88% 30.12 in 10.0 mi Calm Calm - N/A   Clear
2:55 AM 66.2 °F - 64.4 °F 94% 30.12 in 10.0 mi North 3.5 mph - N/A   Clear
3:15 AM 66.2 °F - 64.4 °F 94% 30.12 in 10.0 mi North 3.5 mph - N/A   Clear
3:35 AM 66.2 °F - 64.4 °F 94% 30.11 in 10.0 mi Calm Calm - N/A   Clear
3:55 AM 66.2 °F - 64.4 °F 94% 30.11 in 10.0 mi North 3.5 mph - N/A   Clear
4:15 AM 66.2 °F - 64.4 °F 94% 30.11 in 10.0 mi Calm Calm - N/A   Clear
4:35 AM 64.4 °F - 64.4 °F 100% 30.11 in 10.0 mi Calm Calm - N/A   Clear
4:55 AM 66.2 °F - 64.4 °F 94% 30.12 in 10.0 mi Calm Calm - N/A   Clear
5:15 AM 66.2 °F - 64.4 °F 94% 30.12 in 10.0 mi Calm Calm - N/A   Clear
5:35 AM 64.4 °F - 62.6 °F 94% 30.12 in 10.0 mi NNE 3.5 mph - N/A   Clear
5:55 AM 64.4 °F - 62.6 °F 94% 30.13 in 10.0 mi North 3.5 mph - N/A   Scattered Clouds
6:15 AM 64.4 °F - 62.6 °F 94% 30.13 in 10.0 mi NNE 3.5 mph - N/A   Clear
6:35 AM 64.4 °F - 64.4 °F 100% 30.13 in 10.0 mi Calm Calm - N/A   Clear
6:55 AM 64.4 °F - 62.6 °F 94% 30.13 in 7.0 mi Calm Calm - N/A   Clear
7:15 AM 64.4 °F - 62.6 °F 94% 30.13 in 10.0 mi NNE 3.5 mph - N/A   Clear
7:35 AM 64.4 °F - 62.6 °F 94% 30.14 in 10.0 mi Calm Calm - N/A   Scattered Clouds
7:55 AM 66.2 °F - 64.4 °F 94% 30.15 in 10.0 mi Calm Calm - N/A   Mostly Cloudy
8:15 AM 68.0 °F - 64.4 °F 88% 30.15 in 10.0 mi Calm Calm - N/A   Mostly Cloudy
8:35 AM 68.0 °F - 64.4 °F 88% 30.15 in 10.0 mi NNE 3.5 mph - N/A   Mostly Cloudy
8:55 AM 68.0 °F - 64.4 °F 88% 30.16 in 10.0 mi NE 3.5 mph - N/A   Overcast
9:15 AM 69.8 °F - 64.4 °F 83% 30.16 in 10.0 mi Calm Calm - N/A   Overcast
9:35 AM 69.8 °F - 64.4 °F 83% 30.16 in 10.0 mi Calm Calm - N/A   Overcast
9:55 AM 71.6 °F - 64.4 °F 78% 30.16 in 10.0 mi Calm Calm - N/A   Overcast
10:15 AM 71.6 °F - 64.4 °F 78% 30.16 in 10.0 mi Calm Calm - N/A   Overcast
10:35 AM 73.4 °F - 64.4 °F 73% 30.16 in 10.0 mi Calm Calm - N/A   Mostly Cloudy
10:55 AM 75.2 °F - 64.4 °F 69% 30.16 in 10.0 mi Calm Calm - N/A   Scattered Clouds
11:15 AM 77.0 °F - 64.4 °F 65% 30.16 in 10.0 mi Calm Calm - N/A   Clear
11:35 AM 77.0 °F - 64.4 °F 65% 30.16 in 10.0 mi Calm Calm - N/A   Scattered Clouds
11:55 AM 78.8 °F - 64.4 °F 61% 30.15 in 10.0 mi Calm Calm - N/A   Scattered Clouds
12:15 PM 80.6 °F 82.3 °F 64.4 °F 58% 30.14 in 10.0 mi SW 4.6 mph - N/A   Scattered Clouds
12:35 PM 80.6 °F 81.8 °F 62.6 °F 54% 30.13 in 10.0 mi South 3.5 mph - N/A   Scattered Clouds
12:55 PM 80.6 °F 81.8 °F 62.6 °F 54% 30.13 in 10.0 mi SW 3.5 mph - N/A   Clear
1:15 PM 80.6 °F 82.3 °F 64.4 °F 58% 30.12 in 10.0 mi Calm Calm - N/A   Clear
1:35 PM 80.6 °F 82.3 °F 64.4 °F 58% 30.11 in 10.0 mi West 4.6 mph - N/A   Scattered Clouds
1:55 PM 82.4 °F 83.9 °F 64.4 °F 54% 30.11 in 10.0 mi WSW 5.8 mph - N/A   Mostly Cloudy
2:15 PM 84.2 °F 85.6 °F 64.4 °F 51% 30.10 in 10.0 mi SSW 5.8 mph - N/A   Scattered Clouds
2:35 PM 82.4 °F 83.9 °F 64.4 °F 54% 30.10 in 10.0 mi SW 4.6 mph - N/A   Scattered Clouds
2:55 PM 84.2 °F 85.6 °F 64.4 °F 51% 30.08 in 10.0 mi Calm Calm - N/A   Scattered Clouds
3:15 PM 82.4 °F 83.9 °F 64.4 °F 54% 30.07 in 10.0 mi South 3.5 mph - N/A   Scattered Clouds
3:35 PM 84.2 °F 85.6 °F 64.4 °F 51% 30.07 in 10.0 mi West 6.9 mph - N/A   Scattered Clouds
3:55 PM 86.0 °F 87.3 °F 64.4 °F 48% 30.06 in 10.0 mi SW 3.5 mph - N/A   Scattered Clouds
4:15 PM 84.2 °F 85.6 °F 64.4 °F 51% 30.05 in 10.0 mi SSW 4.6 mph - N/A   Scattered Clouds
4:35 PM 84.2 °F 85.6 °F 64.4 °F 51% 30.04 in 10.0 mi SSW 5.8 mph - N/A   Scattered Clouds
4:55 PM 84.2 °F 85.6 °F 64.4 °F 51% 30.04 in 10.0 mi SW 5.8 mph - N/A   Scattered Clouds
5:15 PM 84.2 °F 85.6 °F 64.4 °F 51% 30.04 in 10.0 mi SW 6.9 mph - N/A   Clear
5:35 PM 84.2 °F 85.6 °F 64.4 °F 51% 30.03 in 10.0 mi SW 5.8 mph - N/A   Clear
5:55 PM 84.2 °F 85.6 °F 64.4 °F 51% 30.03 in 10.0 mi SW 6.9 mph - N/A   Clear
6:15 PM 82.4 °F 83.9 °F 64.4 °F 54% 30.02 in 10.0 mi SSW 3.5 mph - N/A   Clear
6:35 PM 82.4 °F 84.6 °F 66.2 °F 58% 30.02 in 10.0 mi Calm Calm - N/A   Clear
6:55 PM 82.4 °F 84.6 °F 66.2 °F 58% 30.02 in 10.0 mi Calm Calm - N/A   Clear
7:15 PM 80.6 °F 82.7 °F 66.2 °F 61% 30.02 in 10.0 mi SSW 3.5 mph - N/A   Clear
7:35 PM 78.8 °F - 66.2 °F 65% 30.02 in 10.0 mi Calm Calm - N/A   Clear
7:55 PM 78.8 °F - 66.2 °F 65% 30.02 in 10.0 mi Calm Calm - N/A   Clear
8:15 PM 77.0 °F - 68.0 °F 74% 30.02 in 10.0 mi Calm Calm - N/A   Clear
8:35 PM 73.4 °F - 68.0 °F 83% 30.02 in 10.0 mi Calm Calm - N/A   Clear
8:55 PM 75.2 °F - 68.0 °F 78% 30.02 in 10.0 mi Calm Calm - N/A   Clear
9:15 PM 73.4 °F - 68.0 °F 83% 30.02 in 10.0 mi Calm Calm - N/A   Clear
9:35 PM 71.6 °F - 69.8 °F 94% 30.02 in 10.0 mi Calm Calm - N/A   Clear
9:55 PM 71.6 °F - 69.8 °F 94% 30.03 in 10.0 mi Calm Calm - N/A   Clear
10:15 PM 71.6 °F - 68.0 °F 88% 30.03 in 10.0 mi Calm Calm - N/A   Clear
10:35 PM 69.8 °F - 68.0 °F 94% 30.03 in 10.0 mi Calm Calm - N/A   Clear
10:55 PM 69.8 °F - 68.0 °F 94% 30.02 in 10.0 mi WSW 3.5 mph - N/A   Clear
11:15 PM 69.8 °F - 68.0 °F 94% 30.02 in 10.0 mi WSW 3.5 mph - N/A   Clear
11:35 PM 71.6 °F - 66.2 °F 83% 30.02 in 10.0 mi WSW 3.5 mph - N/A   Clear
11:55 PM 69.8 °F - 66.2 °F 88% 30.02 in 10.0 mi WSW 4.6 mph - N/A   Clear